Home   Weather   Germantown   Past weeks
Flag for USA

Past Weather in Germantown, Maryland, USA — Yesterday and Last 2 Weeks

Now
43 °F

Clear.


Feels Like: 43 °F
Forecast: 71 / 41 °F
Wind: No wind

Location: Frederick Municipal Airport

Current Time: Oct 15, 2019 at 5:13:08 am

Latest Report: Oct 15, 2019 at 4:25 am


Visibility: 7 mi

Pressure: 30.13 "Hg

Humidity: 93%

Dew Point: 41 °F

Location of GermantownLocation

Past Weather in Germantown — Graph

°F

Germantown Temperature Yesterday

Maximum temperature yesterday: 75 °F (at 4:47 pm)
Minimum temperature yesterday: 37 °F (at 7:00 am)
Average temperature yesterday: 51 °F

High & Low Weather Summary for the Past Weeks

 TemperatureHumidityPressure
High93 °F (Oct 2, 1:47 pm)100% (Oct 2, 6:25 am)30.45 "Hg (Oct 2, 6:25 am)
Low37 °F (Oct 14, 7:00 am)24% (Oct 14, 4:47 pm)29.84 "Hg (Oct 2, 4:47 pm)
Average61 °F79%30.13 "Hg
* Reported Sep 30 4:05 am — Oct 15 4:05 am, Germantown. Weather by CustomWeather, © 2019

Note: Actual official high and low records may vary slightly from our data, if they occured in-between our weather recording intervals... More about our weather records

Advertising

Germantown Weather History for the Previous 24 Hours

Scroll right to see more
 ConditionsComfort  
Time TempWeatherWind HumidityBarometerVisibility
4:05 am
Tue, Oct 15
41 °FClear.No wind100%30.13 "Hg10 mi
3:25 am45 °FClear.No wind93%30.12 "Hg10 mi
3:05 am43 °FClear.No wind100%30.12 "Hg10 mi
2:45 am45 °FClear.No wind93%30.12 "Hg10 mi
2:25 am45 °FClear.No wind93%30.11 "Hg10 mi
2:05 am45 °FClear.No wind93%30.11 "Hg10 mi
1:45 am46 °FClear.No wind93%30.11 "Hg10 mi
1:25 am46 °FClear.No wind93%30.10 "Hg10 mi
1:05 am46 °FClear.No wind93%30.10 "Hg10 mi
12:25 am50 °FClear.No wind82%30.09 "Hg10 mi
12:05 am46 °FClear.3 mph93%30.09 "Hg10 mi
11:45 pm
Mon, Oct 14
50 °FClear.No wind82%30.08 "Hg10 mi
11:25 pm50 °FClear.3 mph82%30.07 "Hg10 mi
11:05 pm50 °FClear.3 mph82%30.07 "Hg10 mi
10:25 pm50 °FClear.No wind82%30.06 "Hg10 mi
10:05 pm50 °FClear.No wind88%30.06 "Hg10 mi
9:25 pm52 °FClear.No wind82%30.06 "Hg10 mi
8:47 pm55 °FClear.No wind72%30.04 "Hg10 mi
7:47 pm61 °FClear.No wind55%30.01 "Hg10 mi
6:47 pm66 °FClear.5 mph37%29.98 "Hg10 mi
5:47 pm73 °FSunny.8 mph27%29.96 "Hg10 mi
4:47 pm75 °FSunny.8 mph24%29.96 "Hg10 mi
3:47 pm73 °FSunny.9 mph25%29.97 "Hg10 mi
2:47 pm73 °FSunny.12 mph27%29.98 "Hg10 mi
1:47 pm73 °FSunny.12 mph29%30.00 "Hg10 mi
12:47 pm72 °FSunny.13 mph31%30.03 "Hg10 mi
11:49 am68 °FSunny.5 mph43%30.04 "Hg10 mi
10:47 am63 °FSunny.7 mph59%30.06 "Hg10 mi
9:47 am55 °FSunny.No wind88%30.06 "Hg10 mi
8:50 am43 °FPassing clouds.No wind100%30.05 "Hg7 mi
7:47 am39 °FFog.No wind100%30.03 "Hg0 mi
7:00 am37 °FFog.No wind100%30.01 "Hg2 mi
6:47 am39 °FFog.No wind100%30.01 "Hg1 mi
6:25 am39 °FFog.No wind100%30.01 "Hg1 mi
6:05 am41 °FFog.No wind100%30.00 "Hg1 mi
5:25 am41 °FFog.No wind100%29.98 "Hg1 mi
5:05 am41 °FFog.No wind100%29.98 "Hg5 mi
Weather by CustomWeather, © 2019

See weather overview